This demonstration page uses our WeatherBlox Daily Observations layout. Learn more.

Left ArrowRight Arrow

36.17497, -115.13722

Hourly Observations for July 9, 2017

Temp ( °F °C ) Dew Point ( °F °C ) Humidity (%) Winds ( mph kmh ) Pressure ( in mb ) Visibility ( mi km ) Precip ( " mm )
12:53 am 00:53 Clear 95 35 52 11.1 23 23 SW 8 13 29.92 1013 10 16 N/A
1:53 am 01:53 Mostly Clear 94 34.4 51 10.6 23 23 SSW 8 13 29.90 1013 10 16 N/A
2:53 am 02:53 Clear 93 33.9 51 10.6 24 24 SSE 7 11 29.89 1012 10 16 N/A
3:53 am 03:53 Clear 93 33.9 50 10 23 23 SSE 5 7 29.88 1012 10 16 N/A
4:53 am 04:53 Clear 92 33.3 52 11.1 26 26 NE 6 9 29.88 1012 10 16 N/A
5:53 am 05:53 Mostly Sunny 91 32.8 53 11.7 27 27 N N/A 29.89 1012 10 16 N/A
6:27 am 06:27 Mostly Cloudy 92 33.3 52 11.1 26 26 NW 10 17 29.74 1007 10 16 N/A
6:53 am 06:53 Mostly Sunny 92 33.3 53 11.7 27 27 SSE 8 13 29.89 1012 10 16 N/A
7:53 am 07:53 Sunny 93 33.9 52 11.1 25 25 SSE 12 19 29.92 1013 10 16 N/A
8:53 am 08:53 Sunny 94 34.4 52 11.1 24 24 SSE 15 24 29.94 1014 10 16 N/A
9:53 am 09:53 Sunny 95 35 53 11.7 24 24 ESE 13 20 29.94 1014 10 16 N/A
10:53 am 10:53 Sunny 97 36.1 53 11.7 23 23 ESE 12 19 29.93 1014 10 16 N/A
11:53 am 11:53 Sunny 100 37.8 54 12.2 21 21 ESE 13 20 29.92 1013 10 16 N/A
12:53 pm 12:53 Sunny 100 37.8 53 11.7 21 21 ESE 13 20 29.90 1013 10 16 N/A
1:53 pm 13:53 Sunny 101 38.3 53 11.7 20 20 ESE 10 17 29.88 1012 10 16 N/A
2:53 pm 14:53 Sunny 102 38.9 53 11.7 19 19 VRB 6 9 29.85 1011 10 16 N/A
3:53 pm 15:53 Sunny 104 40 51 10.6 17 17 ESE 7 11 29.80 1009 10 16 N/A
4:53 pm 16:53 Sunny 104 40 52 11.1 18 18 SE 7 11 29.78 1008 10 16 N/A
5:53 pm 17:53 Sunny 104 40 52 11.1 18 18 S 8 13 29.76 1008 10 16 N/A
6:53 pm 18:53 Sunny 103 39.4 48 8.9 16 16 SW 12 19 29.77 1008 10 16 N/A
7:53 pm 19:53 Sunny 101 38.3 48 8.9 17 17 WSW 9 15 29.78 1009 10 16 N/A
8:53 pm 20:53 Clear 99 37.2 48 8.9 18 18 SW 8 13 29.80 1009 10 16 N/A
9:53 pm 21:53 Clear 98 36.7 48 8.9 18 18 SSW 6 9 29.82 1010 10 16 N/A
10:53 pm 22:53 Clear 96 35.6 48 8.9 19 19 NNW 10 17 29.83 1010 10 16 N/A
11:53 pm 23:53 Clear 93 33.9 53 11.7 26 26 NNW 18 30 29.84 1010 10 16 N/A

Powered by AerisWeather